Regional Weather Roundup
Issued by NWS Northern Indiana

Home | Current Version | Previous Version | Text Only | Print | Product List | Glossary On
Versions: 1 2 3 4 5 6 7 8 9 10 11 12 13 14 15 16 17 18 19 20 21 22 23 24 25 26 27 28 29 30 31 32 33 34 35 36 37 38 39 40 41 42 43 44 45 46 47 48 49 50
000
ASUS43 KIWX 191410
RWRIWX

KIWX WEATHER ROUNDUP
NATIONAL WEATHER SERVICE NORTHERN INDIANA
900 AM EST SUN NOV 19 2017

NOTE: "FAIR" INDICATES FEW OR NO CLOUDS BELOW 12,000 FEET WITH NO
SIGNIFICANT WEATHER AND/OR OBSTRUCTIONS TO VISIBILITY.

* THESE STATIONS ARE NOT UNDER NWS QUALITY CONTROL. THEY ALSO MAY NOT
  REPORT WEATHER SUCH AS PRECIPITATION OR FOG.

INZ001>027-191500-
NORTHERN INDIANA

CITY           SKY/WX    TMP DP  RH WIND       PRES   REMARKS
GARY*          PTSUNNY   32  21  64 W17       30.00R WCI  21
VALPARAISO     CLOUDY    33  22  63 W12       29.99R WCI  24
MICHIGAN CITY* CLOUDY    32  23  69 W15G22    29.98R WCI  22
LAPORTE*       CLOUDY    32  23  69 NW10      29.97R WCI  24
KNOX*          CLOUDY    32  27  80 NW10      29.97R WCI  24
SOUTH BEND     CLOUDY    33  24  69 NW16G22   29.95R WCI  23
ELKHART*       CLOUDY    34  25  69 W20       29.93  WCI  22
GOSHEN         CLOUDY    35  25  66 W16       29.92R WCI  25
MONTICELLO*    CLOUDY    31  25  76 W16G22    30.00R WCI  20
LOGANSPORT*    CLOUDY    34  27  75 W9        29.99R WCI  26
ROCHESTER*     CLOUDY    36  27  69 W14       29.96R
WARSAW*        CLOUDY    32  27  80 W15       29.93R WCI  22
AUBURN*        CLOUDY    36  30  80 W12       29.89R
FORT WAYNE     CLOUDY    37  30  75 W14       29.91R
HUNTINGTON*    CLOUDY    35  28  75 W8        29.93R WCI  28
PERU/GRISSOM   CLOUDY    34  26  72 W16G22    29.96R WCI  24
MARION*        CLOUDY    34  30  86 W15       29.96R WCI  24

$$
INZ028>050-191500-
CENTRAL INDIANA

CITY           SKY/WX    TMP DP  RH WIND       PRES   REMARKS
LAFAYETTE      CLOUDY    31  26  82 W14G22    30.02R WCI  21
KOKOMO*        CLOUDY    34  30  86 W17       29.98R WCI  23
MUNCIE*        CLOUDY    36  29  75 W9        29.95R
INDIANAPOLIS   CLOUDY    34  27  75 W13       30.01R WCI  25

$$
MIZ043>046-050>051-056>058-064>065-071>073-077>080-191500-
SOUTHWEST LOWER MICHIGAN

CITY           SKY/WX    TMP DP  RH WIND       PRES   REMARKS
BATTLE CREEK   FLURRIES  34  26  72 NW17G25   29.87R WCI  23
BENTON HARBOR  CLOUDY    35  22  58 NW10G22   29.94R WCI  27
COLDWATER*     CLOUDY    35  28  75 W15       29.87R WCI  25
HILLSDALE*     CLOUDY    32  32 100 W9        29.83R WCI  24
HOLLAND        CLOUDY    34  23  64 W15       29.90R WCI  24
GRAND RAPIDS   CLOUDY    34  26  72 NW13      29.86R WCI  25
KALAMAZOO      CLOUDY    35  24  64 W12       29.88R WCI  27
STURGIS*       CLOUDY    34  25  69 W9        29.89R WCI  26
THREE RIVERS*  CLOUDY    36  26  67 NW12      29.90R

$$
OHZ001>008-015>018-024>025-191500-
NORTHWEST OHIO

CITY           SKY/WX    TMP DP  RH WIND       PRES   REMARKS
WAUSEON*       CLOUDY    36  34  93 W8        29.86R
DEFIANCE       CLOUDY    37  29  72 W8        29.88R
FINDLAY        CLOUDY    38  30  73 NW12      29.86R
TOLEDO EXPRESS CLOUDY    36  32  85 W10       29.86R
TOLEDO METCALF CLOUDY    37  28  70 W16       29.86R

$$
AND FOR LAKE MICHIGAN COASTAL AND OPEN LAKE BUOY OBSERVATIONS

STATION/POSITION TEMP    WIND        PRES    VSBY  WAVE
                 AIR SEA DIR/SP/G                  HT/PER
                 (F)     (DEG/KT/KT) (MB)    (MI)  (FT/S)
MICHIGAN CITY     33     290/ 20/ 24   N/A
BURNS HARBOR      34     280/ 20/ 23 1015.2R
SAINT JOSEPH      36     300/ 16/ 20 1014.2
SOUTH LAKE BUOY   33 49  330/ 21/ 25 1013.6          6/ 7

$$
&&




USA.gov is the U.S. government's official web portal to all federal, state and local government web resources and services.